www.pogodaiklimat.ru

Погода и климат >> Архив погоды >> Венгрия >> Poroszlo


ПОГОДА в Poroszlo

  • Прогноз погоды в Poroszlo
  • Монитор погоды в Poroszlo
  • Климат города

АРХИВ ПОГОДЫ в Poroszlo

Время (UTC), дата Ветер
(напр.,м/с)
 
Видим.   Явления Облачность Т
(С)
Тd
(С)
f
(%)
Тe
(С)
Тes
(С)
Комфортность P
(гПа)
Po
(гПа)
Тmin
(С)
Tmax
(С)
R
(мм)
R24
(мм)
S
(см)
07 11.08 ЮЗ 4
{7}
н/о н/о +26.4 +13.2 44 +28 +28 жарко 1020.5 1010.0
08 11.08 ЮЗ 5
{9}
н/о н/о +26.9 +11.8 39 +28 +28 жарко 1020.3 1009.8
09 11.08 Ю 5 н/о н/о +28.0 +12.0 37 +29 +29 жарко 1019.9 1009.5
10 11.08 Ю 4
{7}
н/о н/о +27.8 +13.0 40 +29 +29 жарко 1019.7 1009.3
11 11.08 ЮЗ 4
{7}
н/о н/о +28.3 +12.2 37 +29 +29 жарко 1019.5 1009.1
12 11.08 З 4 н/о н/о +28.1 +12.5 38 +29 +29 жарко 1019.3 1008.9
13 11.08 З 4
{7}
н/о н/о +27.9 +14.5 44 +30 +30 жарко 1019.1 1008.7
14 11.08 З 3
{7}
н/о н/о +27.5 +15.8 49 +31 +31 душно 1018.7 1008.3
15 11.08 З 3
{7}
н/о н/о +27.9 +14.2 43 +30 +30 жарко 1018.5 1008.1
16 11.08 З 3 н/о н/о +27.9 +15.2 46 +31 +31 душно 1018.2 1007.8
17 11.08 З 3 н/о н/о +27.0 +13.7 44 +29 +29 жарко 1017.9 1007.5
18 11.08 ЮЗ 1 н/о н/о +26.2 +13.0 44 +28 +28 жарко 1018.2 1007.7 +29.2
19 11.08 ЮЗ 1 н/о н/о +24.2 +13.4 51 +26 +26 жарко 1018.5 1008.0
20 11.08 ЮЗ 2 н/о н/о +22.9 +14.5 59 +27 +27 душно 1018.9 1008.3
21 11.08 З 2 н/о н/о +20.7 +14.4 67 +24 +24 комфорт 1019.1 1008.4
22 11.08 З 2 н/о н/о +20.9 +15.0 69 +25 +25 комфорт 1019.2 1008.5
23 11.08 ЮЗ 1 н/о н/о +20.0 +15.2 74 +23 +23 комфорт 1019.1 1008.4
00 12.08 штиль 0 н/о н/о +19.6 +15.3 76 +21 +21 комфорт 1018.9 1008.2 0.1
01 12.08 В 1 н/о н/о +18.9 +15.2 79 +21 +21 комфорт 1019.0 1008.3
02 12.08 СЗ 2 н/о н/о +16.5 +13.6 83 +17 +17 1019.2 1008.4
03 12.08 СЗ 1 н/о н/о +16.4 +14.1 86 +17 +17 1019.3 1008.5
04 12.08 С 2 н/о н/о +17.1 +15.6 91 +17 +17 1019.3 1008.5
05 12.08 н/о н/о +18.2 +16.2 88 1019.7 1008.9
06 12.08 СВ 2 н/о н/о +21.5 +17.1 76 +25 +25 комфорт 1019.7 1009.1 +16.1 0.2
07 12.08 СВ 3
{7}
н/о н/о +23.6 +15.4 60 +27 +27 жарко 1019.7 1009.1
08 12.08 С 3
{7}
н/о н/о +25.3 +13.8 49 +28 +28 жарко 1019.5 1009.0
09 12.08 В 3 н/о н/о +26.4 +13.5 45 +28 +28 жарко 1019.5 1009.0
10 12.08 ЮВ 3 н/о н/о +26.8 +14.6 47 +29 +29 жарко 1019.3 1008.9
11 12.08 ЮВ 3 н/о н/о +28.3 +15.2 45 +31 +31 душно 1018.9 1008.5
12 12.08 ЮВ 3 н/о н/о +28.7 +13.8 40 +31 +31 жарко 1018.5 1008.1
13 12.08 ЮВ 2 н/о н/о +29.3 +12.7 36 +30 +30 жарко 1017.7 1007.4
14 12.08 ЮВ 3 н/о н/о +30.0 +12.9 35 +31 +31 жарко 1017.1 1006.8
15 12.08 ЮВ 2 н/о н/о +30.2 +11.7 32 +31 +31 жарко 1016.5 1006.2
16 12.08 З 3 н/о н/о +30.9 +9.7 27 +30 +30 жарко 1016.0 1005.7
17 12.08 З 2
{11}
н/о н/о +29.4 +10.5 31 +30 +30 жарко 1015.6 1005.3
18 12.08 ЮЗ 1 н/о н/о +27.8 +10.5 34 +28 +28 жарко 1015.4 1005.0 +31.2
19 12.08 ЮЗ 1 н/о н/о +24.3 +11.6 45 +26 +26 жарко 1015.7 1005.2
20 12.08 Ю 1 н/о н/о +22.3 +13.1 56 +25 +25 комфорт 1015.8 1005.2
21 12.08 СЗ 1 н/о н/о +19.8 +12.3 62 +22 +22 комфорт 1016.0 1005.3
22 12.08 Ю 1 н/о н/о +20.1 +13.1 64 +23 +23 комфорт 1015.8 1005.2
23 12.08 ЮВ 2 н/о н/о +22.0 +15.8 68 +26 +26 душно 1015.7 1005.1
00 13.08 Ю 1 н/о н/о +20.1 +14.7 71 +24 +24 комфорт 1015.4 1004.8
01 13.08 С 1 н/о н/о +18.1 +13.4 74 +19 +19 1015.2 1004.5
02 13.08 С 1 н/о н/о +16.8 +12.7 77 +18 +18 1015.1 1004.3
03 13.08 СВ 2 н/о н/о +16.9 +11.8 72 +17 +17 1014.9 1004.1
04 13.08 СВ 2 н/о н/о +16.6 +12.4 76 +17 +17 1014.8 1004.0
05 13.08 СВ 1 н/о н/о +17.3 +12.8 75 +18 +18 1014.9 1004.2
06 13.08 СВ 1 н/о н/о +20.8 +15.1 70 +25 +25 комфорт 1014.6 1004.0 +16.2 0.1
07 13.08 ЮВ 1 н/о н/о +23.7 +15.7 61 +27 +27 жарко 1014.5 1004.0
08 13.08 Ю 2 н/о н/о +25.7 +13.9 48 +28 +28 жарко 1014.4 1004.0
09 13.08 Ю 3 н/о н/о +28.3 +13.4 40 +30 +30 жарко 1014.2 1003.9
10 13.08 Ю 3 н/о н/о +30.5 +14.6 38 +33 +33 душно 1013.8 1003.5
11 13.08 Ю 4
{7}
н/о н/о +31.2 +14.4 36 +33 +33 жарко 1013.2 1003.0
12 13.08 Ю 4
{8}
н/о н/о +31.9 +13.6 33 +33 +33 жарко 1012.5 1002.3
13 13.08 Ю 4
{8}
н/о н/о +32.5 +13.7 32 +34 +34 очень
жарко
1012.0 1001.8
14 13.08 Ю 4
{8}
н/о н/о +31.4 +12.2 31 +32 +32 жарко 1011.5 1001.3
15 13.08 Ю 3 н/о н/о +31.7 +13.0 32 +33 +33 жарко 1010.9 1000.7
16 13.08 Ю 3 н/о н/о +32.1 +12.9 31 +33 +33 жарко 1010.4 1000.2
17 13.08 Ю 2 н/о н/о +31.0 +13.8 35 +32 +32 жарко 1009.9 999.7
18 13.08 Ю 1 н/о н/о +29.0 +14.8 42 +31 +31 жарко 1009.8 999.5 +32.8
19 13.08 Ю 2 н/о н/о +26.6 +15.0 49 +29 +29 жарко 1010.2 999.8
20 13.08 Ю 3 н/о н/о +26.2 +13.3 45 +28 +28 жарко 1010.4 1000.0
21 13.08 ЮВ 2 н/о н/о +25.2 +13.4 48 +27 +27 жарко 1010.4 1000.0
22 13.08 Ю 3 н/о н/о +25.3 +12.2 44 +27 +27 жарко 1010.6 1000.2
23 13.08 Ю 3 н/о н/о +25.0 +11.9 44 +27 +27 жарко 1010.9 1000.5
00 14.08 Ю 3 н/о н/о +24.6 +11.5 44 +26 +26 жарко 1011.0 1000.6
01 14.08 Ю 4 н/о н/о +23.8 +12.1 48 +26 +26 жарко 1011.0 1000.5
02 14.08 ЮВ 3 н/о н/о +22.5 +12.5 53 +25 +25 комфорт 1010.8 1000.3
03 14.08 ЮВ 1 н/о н/о +21.6 +13.0 58 +24 +24 комфорт 1010.8 1000.3
04 14.08 ЮВ 1 н/о н/о +19.7 +12.9 65 +22 +22 комфорт 1011.2 1000.6
05 14.08 ЮВ 2 н/о н/о +21.3 +14.0 63 +24 +24 комфорт 1011.3 1000.7
06 14.08 ЮВ 2 н/о н/о +22.0 +14.1 61 +25 +25 комфорт 1011.6 1001.1 +19.3
07 14.08 Ю 3 н/о н/о +23.8 +14.5 56 +26 +26 жарко 1011.8 1001.3
08 14.08 ЮЗ 5
{7}
н/о н/о +28.2 +15.1 45 +31 +31 душно 1011.7 1001.4
09 14.08 ЮЗ 2 н/о н/о +24.2 +18.2 69 +29 +29 душно 1011.8 1001.3
10 14.08 Ю 3 н/о н/о +25.3 +16.7 59 +29 +29 душно 1011.7 1001.3
11 14.08 Ю 2 н/о н/о +28.4 +16.7 49 +32 +32 душно 1011.2 1000.9
12 14.08 Ю 4
{7}
н/о н/о +30.5 +14.2 37 +32 +32 жарко 1010.8 1000.6 0.4
13 14.08 Ю 4
{7}
н/о н/о +31.4 +14.1 35 +33 +33 жарко 1010.3 1000.1
14 14.08 Ю 4
{7}
н/о н/о +31.4 +13.2 33 +32 +32 жарко 1009.6 999.4
15 14.08 З 4 н/о н/о +32.5 +13.7 32 +34 +34 очень
жарко
1009.0 998.9
16 14.08 Ю 2 н/о н/о +32.2 +14.4 34 +34 +34 душно 1008.7 998.5
17 14.08 ЮЗ 2 н/о н/о +30.0 +14.9 40 +32 +32 жарко 1008.9 998.7
18 14.08 ЮЗ 2
{7}
н/о н/о +27.9 +13.4 41 +30 +30 жарко 1009.3 999.0 +32.8 0.4
19 14.08 З 9
{17}
н/о н/о +23.6 +14.9 58 +26 +26 жарко 1011.6 1001.1
20 14.08 В 1
{14}
н/о н/о +22.3 +14.7 62 +26 +26 жарко 1011.9 1001.4
21 14.08 штиль 0 н/о н/о +20.5 +17.1 81 +24 +24 комфорт 1011.3 1000.7
22 14.08 штиль 0 н/о н/о +19.5 +17.1 86 +21 +21 комфорт 1011.8 1001.2
23 14.08 З 1 н/о н/о +19.0 +15.9 82 +21 +21 комфорт 1012.4 1001.8
00 15.08 Ю 1 н/о н/о +18.1 +16.4 90 +19 +19 1012.8 1002.1 0.6
01 15.08 Ю 3 н/о н/о +18.7 +16.5 87 +20 +20 1013.3 1002.6
02 15.08 ЮЗ 2 н/о н/о +18.4 +16.6 89 +20 +20 1013.2 1002.5
03 15.08 СЗ 1 н/о н/о +17.1 +16.0 93 +18 +18 1012.7 1002.0
04 15.08 ЮВ 1 н/о н/о +17.5 +16.2 92 +19 +19 1013.0 1002.3
05 15.08 штиль 0 н/о н/о +18.1 +16.4 90 +18 +18 1013.5 1002.8
06 15.08 З 1 н/о н/о +18.8 +17.3 91 +21 +21 комфорт 1014.0 1003.3 +16.9 1
07 15.08 СВ 1 н/о н/о +20.5 +16.5 78 +25 +25 комфорт 1014.2 1003.6
08 15.08 В 2 н/о н/о +22.1 +17.9 77 +27 +27 душно 1014.7 1004.1
09 15.08 В 2 н/о н/о +23.6 +17.6 69 +28 +28 душно 1014.7 1004.2
10 15.08 В 3 н/о н/о +25.9 +16.7 57 +30 +30 душно 1014.7 1004.3
11 15.08 В 3 н/о н/о +27.0 +17.8 57 +31 +31 душно 1014.6 1004.2
12 15.08 Ю 2 н/о н/о +27.3 +16.9 53 +31 +31 душно 1014.5 1004.1
13 15.08 ЮВ 3 н/о н/о +27.3 +16.0 50 +31 +31 душно 1014.3 1003.9
14 15.08 СЗ 6
{11}
н/о н/о +21.3 +15.8 71 +25 +25 комфорт 1015.2 1004.6
15 15.08 СВ 4
{8}
н/о н/о +21.6 +19.3 87 +27 +27 душно 1015.4 1004.8
16 15.08 С 5
{8}
н/о н/о +21.7 +16.9 74 +26 +26 душно 1015.2 1004.6
17 15.08 СВ 4
{8}
н/о н/о +21.4 +16.1 72 +25 +25 комфорт 1015.4 1004.8
18 15.08 СВ 2 н/о н/о +20.9 +17.1 79 +25 +25 комфорт 1015.7 1005.1 +28.1 6
19 15.08 СВ 2 н/о н/о +20.6 +17.2 81 +25 +25 комфорт 1016.2 1005.6
20 15.08 С 1 н/о н/о +20.5 +16.9 80 +25 +25 комфорт 1016.6 1006.0
21 15.08 н/о н/о +20.4 +15.4 73 1016.6 1006.0
22 15.08 С 2 н/о н/о +20.6 +15.2 71 +24 +24 комфорт 1016.8 1006.2
23 15.08 С 2 н/о н/о +20.1 +14.9 72 +23 +23 комфорт 1016.9 1006.2
00 16.08 С 1 н/о н/о +19.4 +14.4 73 +22 +22 комфорт 1016.7 1006.0
01 16.08 СЗ 1 н/о н/о +17.2 +15.0 87 +18 +18 1016.8 1006.0
02 16.08 СЗ 2 н/о н/о +16.6 +14.4 87 +17 +17 1016.7 1005.9
03 16.08 СЗ 1 н/о н/о +15.8 +14.2 90 +16 +16 1016.8 1006.0
04 16.08 СЗ 2 н/о н/о +16.0 +14.0 88 +16 +16 1016.9 1006.1
05 16.08 С 1 н/о н/о +16.9 +14.5 86 +18 +18 1017.0 1006.2
06 16.08 С 4 н/о н/о +20.8 +15.6 72 +24 +24 комфорт 1016.9 1006.3 +15.6
07 16.08 СВ 5
{10}
н/о н/о +22.7 +15.5 64 +27 +27 душно 1016.9 1006.3
08 16.08 С 5
{10}
н/о н/о +23.7 +15.7 61 +27 +27 жарко 1016.9 1006.4
09 16.08 СВ 5
{9}
н/о н/о +24.4 +15.3 57 +27 +27 жарко 1017.0 1006.5
10 16.08 В 4
{8}
н/о н/о +25.7 +15.4 53 +29 +29 душно 1016.9 1006.4
11 16.08 СВ 3
{7}
н/о н/о +26.3 +15.1 50 +29 +29 жарко 1016.4 1006.0
12 16.08 С 4 н/о н/о +27.2 +16.2 51 +31 +31 душно 1016.1 1005.7
13 16.08 СВ 3
{7}
н/о н/о +26.9 +15.3 49 +30 +30 душно 1015.8 1005.4
14 16.08 С 4
{8}
н/о н/о +28.0 +15.0 45 +31 +31 душно 1015.3 1004.9
15 16.08 СВ 4
{9}
н/о н/о +27.8 +14.4 44 +30 +30 жарко 1015.1 1004.7
16 16.08 С 3
{7}
н/о н/о +27.4 +14.8 46 +30 +30 жарко 1015.0 1004.6
17 16.08 СВ 3 н/о н/о +26.8 +14.2 46 +29 +29 жарко 1015.0 1004.6
18 16.08 СВ 2 н/о н/о +25.0 +14.8 53 +28 +28 жарко 1015.4 1004.9 +28.4
19 16.08 С 1 н/о н/о +23.0 +15.1 61 +27 +27 душно 1015.9 1005.4
20 16.08 н/о н/о +21.4 +15.0 67 1015.9 1005.3
21 16.08 С 2 н/о н/о +21.1 +15.0 68 +24 +24 комфорт 1016.0 1005.4
22 16.08 С 2 н/о н/о +21.1 +15.0 68 +24 +24 комфорт 1016.1 1005.5
23 16.08 С 3 н/о н/о +20.8 +14.7 68 +24 +24 комфорт 1016.0 1005.4
00 17.08 СВ 3 н/о н/о +20.3 +14.7 70 +23 +23 комфорт 1015.9 1005.3
01 17.08 СВ 3 н/о н/о +19.9 +14.5 71 +22 +22 комфорт 1016.0 1005.3
02 17.08 СВ 3 н/о н/о +19.4 +14.4 73 +21 +21 комфорт 1016.0 1005.3
03 17.08 СВ 3 н/о н/о +18.2 +14.3 78 +19 +19 1016.2 1005.5
04 17.08 СВ 3 н/о н/о +18.0 +14.3 79 +18 +18 1016.3 1005.6
05 17.08 СВ 2 н/о н/о +18.7 +14.8 78 +20 +20 1016.4 1005.7
06 17.08 СВ 3 н/о н/о +20.9 +15.0 69 +24 +24 комфорт 1016.5 1005.9 +17.8
07 17.08 СВ 3 н/о н/о +22.8 +15.1 62 +27 +27 душно 1016.6 1006.0
08 17.08 В 2 н/о н/о +24.6 +15.5 57 +28 +28 душно 1016.6 1006.1
09 17.08 ЮВ 3 н/о н/о +25.3 +15.6 55 +28 +28 жарко 1016.5 1006.0
10 17.08 ЮВ 3 н/о н/о +26.6 +15.3 50 +29 +29 жарко 1016.1 1005.7
11 17.08 ЮВ 3 н/о н/о +28.0 +15.3 46 +31 +31 душно 1015.9 1005.5
12 17.08 ЮВ 2 н/о н/о +29.1 +14.5 41 +31 +31 жарко 1015.4 1005.1
13 17.08 ЮВ 3 н/о н/о +29.2 +13.8 39 +31 +31 жарко 1015.0 1004.7
14 17.08 ЮВ 3 н/о н/о +29.9 +13.2 36 +31 +31 жарко 1014.6 1004.3
15 17.08 Ю 2 н/о н/о +29.6 +13.0 36 +31 +31 жарко 1014.2 1003.9
16 17.08 ЮВ 2 н/о н/о +29.7 +12.2 34 +31 +31 жарко 1013.9 1003.6
17 17.08 В 1 н/о н/о +28.9 +13.2 38 +30 +30 жарко 1013.8 1003.5
18 17.08 В 1 н/о н/о +26.4 +15.8 52 +30 +30 душно 1014.2 1003.8 +30.5
19 17.08 ЮВ 1 н/о н/о +24.4 +17.4 65 +28 +28 душно 1015.1 1004.6
20 17.08 В 1 н/о н/о +22.7 +17.0 70 +27 +27 душно 1015.4 1004.9
21 17.08 СЗ 1 н/о н/о +19.9 +15.3 75 +23 +23 комфорт 1015.6 1005.0
22 17.08 В 1 н/о н/о +20.5 +14.6 69 +24 +24 комфорт 1016.0 1005.4
23 17.08 З 1 н/о н/о +18.6 +14.3 76 +20 +20 1016.2 1005.5
00 18.08 штиль 0 н/о н/о +18.1 +14.6 80 +18 +18 1016.2 1005.5
01 18.08 С 1 н/о н/о +17.9 +14.0 78 +19 +19 1016.2 1005.5
02 18.08 штиль 0 н/о н/о +16.2 +12.9 81 +16 +16 1016.6 1005.8
03 18.08 СВ 1 н/о н/о +16.7 +13.8 83 +18 +18 1016.7 1005.9
04 18.08 штиль 0 н/о н/о +15.0 +13.2 89 +15 +15 1017.2 1006.4
05 18.08 штиль 0 н/о н/о +17.7 +15.1 85 +18 +18 1017.5 1006.8

 

Местоположение метеостанции Poroszlo (Венгрия): широта 47.65 долгота 20.63 высота над уровнем моря 92 м.

В архиве по умолчанию представлена погода в Poroszlo за последнюю неделю. Архивные данные за месяц целиком и за предыдущие месяцы, начиная с января 2011 года, Вы можете получить, выбрав интересующий диапазон дат из раскрывающегося списка и нажав кнопку "Ввод!".


*Определитесь, кто Вы:
робот инопланетянин человек

Внимание! Время в таблицах - всемирное. Для получения местного времени необходимо прибавить поправку, которая в Poroszlo равна 1 ч.

Смотрите также архив погоды в соседних городах и на ближайших метеорологических станциях:

Погода в Eger (Венгрия) (34 км)
Погода в Miskolc (Венгрия) (51 км)
Погода в Kekesteto (Венгрия) (52 км)
Погода в Szolnok (Венгрия) (66 км)
Погода в Debrecen (Венгрия) (75 км)
Погода в Josvafo (Венгрия) (93 км)
Погода в Szecseny (Польша) (98 км)
Погода в Nyiregyhaza (Венгрия) (100 км)
Погода в Lucenec (Словакия) (101 км)
Погода в Kecskemet (Венгрия) (105 км)

Пояснения к столбцам:

Ветер - указаны скорость ветра в м/с - средняя за 10 мин, порывы в срок и между сроками (в фигурных скобках) и направление, откуда дует ветер: С - северный, СВ - северо-восточный, В - восточный, ЮВ - юго-восточный, Ю - южный, ЮЗ - юго-западный, З - западный, СЗ - северо-западный.
Видимость - горизонтальная дальность видимости в метрах или километрах. При видимости от 1 до 10 км при отсутствии осадков обычно наблюдается дымка, при ухудшении видимости до 1 км и менее - туман. В сухую погоду видимость может ухудшаться дымом, пылью или мглою.
Явления - указаны атмосферные явления, наблюдавшиеся в срок или в последний час перед сроком; фигурными скобками обозначены явления, наблюдавшиеся между сроками (за 1-3 часа до срока); квадратными скобками обозначены град или гололедные отложения с указанием их диаметра в мм.
Облачность - указаны через наклонную черту общая и нижняя облачность в баллах и высота нижней границы облаков в метрах; квадратными скобками обозначены формы облаков: Ci - перистые, Cs - перисто-слоистые, Cc - перисто-кучевые, Ac - высококучевые, As - высокослоистые, Sc - слоисто-кучевые, Ns - слоисто-дождевые, Cu - кучевые, Cb - кучево-дождевые. Подробнее классификацию облаков см. в Атласе облаков (PDF).
T - Температура воздуха - температура, измеренная на высоте 2 м над землей.
Td - Температура точки росы - температура, при понижении до которой содержащийся в воздухе водяной пар достигнет насыщения.
f - Относительная влажность воздуха - влажноcть воздуха, измеренная на высоте 2 м над землей.
Te - Эффективная температура - температура, которую ощущает одетый по сезону человек в тени. Характеристика душности погоды. При расчете учитывается влияние влажности воздуха и скорости ветра на теплоощущения человека.
Tes - Эффективная температура на солнце - температура, которую ощущает человек, с поправкой на солнечный нагрев. Характеристика знойности погоды. Зависит от высоты солнца над горизонтом, облачности и скорости ветра. Ночью, в пасмурную погоду, а также при ветре 12 м/с и более поправка равна нулю.
P - Атмосферное давление - приведенное к уровню моря атмосферное давление.
Po - Атмосферное давление - измеренное на уровне метеостанции атмосферное давление.
Tmin - Минимальная температура - минимум температуры воздуха на высоте 2 м над землей.
Tmax - Максимальная температура - максимум температуры воздуха на высоте 2 м над землей.
R - Количество осадков - Количество выпавших осадков за период времени, мм. При наведении курсора мыши на число - период времени, за который выпало указанное количество осадков.
R24 - Количество осадков - Количество выпавших осадков за 24 часа, мм.
S - Снежный покров - Высота снежного покрова, см. При наведении курсора мыши на число - состояние снежного покрова и степень покрытия местности в баллах.